This is the latest recevied weather packets stored in our database for station/object OE5XFR. If no packets are shown the sender has not sent any weather packets the latest 10 day(s).
| Time | Temp. | Humidity | Pressure | Rain* | Wind** | Luminosity | Snow |
|---|---|---|---|---|---|---|---|
| 1777794315 | 15.56° C | 38% | 1018 hPa | 0 mm | - | - | - |
| 1777793596 | 15° C | 43% | 1018 hPa | 0 mm | - | - | - |
| 1777792875 | 14.44° C | 44% | 1018 hPa | 0 mm | - | - | - |
| 1777792155 | 13.33° C | 49% | 1018 hPa | 0 mm | - | - | - |
| 1777791434 | 12.22° C | 53% | 1018 hPa | 0 mm | - | - | - |
| 1777790715 | 11.11° C | 55% | 1018 hPa | 0 mm | - | - | - |
| 1777789995 | 10° C | 56% | 1018 hPa | 0 mm | - | - | - |
| 1777789274 | 8.89° C | 59% | 1018 hPa | 0 mm | - | - | - |
| 1777788554 | 7.22° C | 63% | 1018 hPa | 0 mm | - | - | - |
| 1777787835 | 6.67° C | 64% | 1018 hPa | 0 mm | - | - | - |
| 1777787114 | 6.11° C | 66% | 1018 hPa | 0 mm | - | - | - |
| 1777786394 | 5.56° C | 66% | 1018 hPa | 0 mm | - | - | - |
| 1777785675 | 5.56° C | 65% | 1018 hPa | 0 mm | - | - | - |
| 1777784955 | 5.56° C | 64% | 1018 hPa | 0 mm | - | - | - |
| 1777784235 | 5.56° C | 64% | 1018 hPa | 0 mm | - | - | - |
| 1777783516 | 5.56° C | 64% | 1018 hPa | 0 mm | - | - | - |
| 1777782795 | 5° C | 65% | 1017 hPa | 0 mm | - | - | - |
| 1777782075 | 5.56° C | 63% | 1018 hPa | 0 mm | - | - | - |
| 1777781355 | 5.56° C | 62% | 1018 hPa | 0 mm | - | - | - |
| 1777780635 | 5.56° C | 62% | 1017 hPa | 0 mm | - | - | - |
| 1777779915 | 5.56° C | 62% | 1018 hPa | 0 mm | - | - | - |
| 1777779196 | 6.11° C | 60% | 1018 hPa | 0 mm | - | - | - |
| 1777778475 | 6.11° C | 59% | 1017 hPa | 0 mm | - | - | - |
| 1777777755 | 6.67° C | 58% | 1018 hPa | 0 mm | - | - | - |
| 1777777035 | 6.67° C | 58% | 1018 hPa | 0 mm | - | - | - |
* Rain latest hour (hover to see other rain measurements)
** Current wind speed in m/s (hover to see current wind gust speed)